Location: Unspecified
(47.6578°N, 23.5640°E)
Time: 01:19:48
(UTC+03:00)

ISS - Pass Details

Date: 26 January 2018
Orbit: 407 x 418 km, 51.6° (Epoch: 25 June)

Event Time Altitude Azimuth Distance (km) Brightness Sun altitude
Rises 19:39:12 0° 261° (W) 2,369 1.5 -23.8°
Reaches altitude 10° 19:41:19 10° 266° (W) 1,515 0.2 -24.1°
Enters shadow 19:43:40 38° 290° (WNW) 677 -2.3 -24.5°
